FW8189 Weather Reports


Display with metric or nautical units.
time (UTC)temp
F
wind
direction
speed
MPH
gust
MPH
rain 1hr
in
rain 24hr
in
rain mn
in
humidity
%
barometer
mb
20260505111020 46 180 0.0 0.0 0.00 0.00 0.00 69 1018.3
20260505102220 47 180 0.0 1.0 0.00 0.00 0.00 68 1018.4
20260505101221 47 180 0.0 0.0 0.00 0.00 0.00 66 1018.1
20260505100235 47 180 0.0 1.0 0.00 0.00 0.00 66 1018.2
20260505095219 48 180 0.0 1.0 0.00 0.00 0.00 66 1018.1
20260505095120 48 180 0.0 0.0 0.00 0.00 0.00 66 1018.2
20260505094135 48 180 0.0 0.0 0.00 0.00 0.00 66 1018.2
20260505092221 48 315 0.0 0.0 0.00 0.00 0.00 65 1018.4
20260505091320 49 180 0.0 0.0 0.00 0.00 0.00 65 1018.4
20260505085422 50 315 0.0 1.0 0.00 0.00 0.00 64 1018.5
20260505084434 50 315 0.0 0.0 0.00 0.00 0.00 63 1018.4
20260505083519 49 191 0.0 2.0 0.00 0.00 0.00 63 1018.4
20260505082521 49 180 0.0 2.0 0.00 0.00 0.00 63 1018.3
20260505081520 49 292 0.0 1.0 0.00 0.00 0.00 62 1018.5
20260505080519 49 292 0.0 2.0 0.00 0.00 0.00 61 1018.3
20260505075535 49 315 0.0 0.0 0.00 0.00 0.00 61 1018.4
20260505074619 49 315 0.0 0.0 0.00 0.00 0.00 61 1018.3
20260505073636 49 315 0.0 0.0 0.00 0.00 0.00 60 1018.6
20260505072721 49 315 0.0 0.0 0.00 0.00 0.00 60 1018.4
20260505071722 50 315 0.0 0.0 0.00 0.00 0.00 59 1018.4
20260505070820 50 315 0.0 0.0 0.00 0.00 0.00 59 1018.4
20260505065822 51 315 0.0 0.0 0.00 0.00 0.00 58 1018.3
20260505065719 51 315 0.0 0.0 0.00 0.00 0.00 58 1018.4
20260505064819 51 315 0.0 0.0 0.00 0.00 0.00 57 1018.4
20260505063822 52 315 0.0 0.0 0.00 0.00 0.00 58 1018.3
20260505062820 52 315 0.0 0.0 0.00 0.00 0.00 56 1018.3
20260505060820 52 315 0.0 0.0 0.00 0.00 0.00 56 1018.5
20260505055819 52 315 0.0 0.0 0.00 0.00 0.00 56 1018.6
20260505054820 53 315 0.0 0.0 0.00 0.00 0.00 56 1018.7
20260505053820 53 315 0.0 0.0 0.00 0.00 0.00 55 1018.8
20260505052919 53 315 0.0 0.0 0.00 0.00 0.00 55 1018.7
20260505051935 54 315 0.0 0.0 0.00 0.00 0.00 55 1018.7
20260505050922 54 315 0.0 0.0 0.00 0.00 0.00 53 1018.6
20260505041020 57 315 0.0 1.0 0.00 0.00 0.00 52 1018.7
20260505035139 57 22 0.0 0.0 0.00 0.00 0.00 51 1018.7
20260505034219 57 180 0.0 0.0 0.00 0.00 0.00 51 1018.8
20260505034136 57 180 0.0 0.0 0.00 0.00 0.00 51 1018.7
20260505033222 57 22 0.0 1.0 0.00 0.00 0.00 50 1018.8
20260505032236 57 22 0.0 0.0 0.00 0.00 0.00 50 1018.8
20260505031319 58 22 0.0 0.0 0.00 0.00 0.00 50 1018.8
20260505025321 58 112 0.0 0.0 0.00 0.00 0.00 49 1018.8
20260505024419 59 22 1.0 2.0 0.00 0.00 0.00 48 1018.8
20260505023420 59 157 0.0 1.0 0.00 0.00 0.00 47 1018.7
20260505022438 59 247 0.0 1.0 0.00 0.00 0.00 48 1018.7
20260505020520 60 22 0.0 0.0 0.00 0.00 0.00 47 1018.6
20260505015619 61 22 0.0 0.0 0.00 0.00 0.00 46 1018.5
20260505014621 62 22 0.0 0.0 0.00 0.00 0.00 47 1018.3
20260505013622 62 22 0.0 0.0 0.00 0.00 0.00 47 1018.3
20260505012621 63 22 0.0 0.0 0.00 0.00 0.00 47 1018.2
20260505011620 63 22 0.0 1.0 0.00 0.00 0.00 46 1018.1
20260505004719 66 22 0.0 1.0 0.00 0.00 0.00 46 1017.9
20260505003721 67 179 0.0 2.0 0.00 0.00 0.00 46 1017.8
20260505002819 67 180 0.0 1.0 0.00 0.00 0.00 45 1017.6
20260505000920 68 180 2.0 5.0 0.00 0.00 0.00 46 1017.6
20260504235936 68 89 2.0 4.0 0.00 0.00 0.00 46 1017.4
20260504234919 68 177 1.0 3.0 0.00 0.00 0.00 45 1017.2
20260504233921 69 135 3.0 4.0 0.00 0.00 0.00 45 1017.3
20260504233021 69 180 2.0 3.0 0.00 0.00 0.00 44 1017.1
20260504232021 69 302 1.0 3.0 0.00 0.00 0.00 45 1017.2
20260504231019 70 157 0.0 0.0 0.00 0.00 0.00 45 1017.2
20260504230021 70 47 0.0 2.0 0.00 0.00 0.00 45 1017.0
20260504224020 71 47 2.0 5.0 0.00 0.00 0.00 45 1017.0
20260504223119 71 153 0.0 1.0 0.00 0.00 0.00 45 1017.1
20260504222119 72 72 1.0 3.0 0.00 0.00 0.00 45 1017.2
20260504220121 73 180 0.0 1.0 0.00 0.00 0.00 46 1016.8
20260504215119 74 180 0.0 1.0 0.00 0.00 0.00 46 1016.9
20260504214120 74 133 0.0 1.0 0.00 0.00 0.00 46 1016.8
20260504213119 75 180 0.0 0.0 0.00 0.00 0.00 47 1016.8
20260504211136 76 180 0.0 1.0 0.00 0.00 0.00 47 1016.8
20260504210119 77 180 0.0 0.0 0.00 0.00 0.00 48 1016.8
20260504205219 78 22 0.0 0.0 0.00 0.00 0.00 48 1016.8
20260504204220 79 180 0.0 1.0 0.00 0.00 0.00 49 1016.9
20260504203219 78 180 0.0 1.0 0.00 0.00 0.00 49 1017.1
20260504202219 78 22 1.0 2.0 0.00 0.00 0.00 50 1017.1
20260504202120 78 22 1.0 2.0 0.00 0.00 0.00 50 1017.1
20260504201120 78 64 0.0 1.0 0.00 0.00 0.00 50 1017.3
20260504200120 78 241 0.0 0.0 0.00 0.00 0.00 50 1017.5
20260504195119 77 180 0.0 1.0 0.00 0.00 0.00 52 1017.4
20260504194121 77 159 2.0 4.0 0.00 0.00 0.00 52 1017.6
20260504193120 78 22 0.0 1.0 0.00 0.00 0.00 53 1017.7
20260504192120 78 128 0.0 1.0 0.00 0.00 0.00 53 1018.0
20260504191218 79 180 1.0 2.0 0.00 0.00 0.00 55 1018.0
20260504190221 78 145 0.0 1.0 0.00 0.00 0.00 56 1018.2
20260504185119 76 166 0.0 2.0 0.00 0.00 0.00 56 1018.5
20260504182219 75 180 1.0 2.0 0.00 0.00 0.00 59 1018.9
20260504181222 74 112 1.0 1.0 0.00 0.00 0.00 60 1019.0
20260504180218 73 78 0.0 3.0 0.00 0.00 0.00 60 1019.0
20260504175236 73 112 2.0 4.0 0.00 0.00 0.00 60 1019.1
20260504174319 73 125 2.0 3.0 0.00 0.00 0.00 62 1019.3
20260504173319 74 123 2.0 7.0 0.00 0.00 0.00 62 1019.4
20260504172322 73 112 0.0 0.0 0.00 0.00 0.00 63 1019.4
20260504171419 72 141 0.0 2.0 0.00 0.00 0.00 64 1019.4
20260504170418 72 115 1.0 3.0 0.00 0.00 0.00 64 1019.6
20260504150620 66 113 1.0 2.0 0.00 0.00 0.00 73 1021.3
20260504130818 51 156 0.0 1.0 0.00 0.00 0.00 74 1021.9